owner,sensor,date,latitude,longitude,vertical_datum,sea_water_practical_salinity,qcFlag 
SCCF RECON,ioos:station:SCCF:53:1,2008-06-01T00:00:00Z,26.6493,-81.8810,2.039,27.53,1111122 
SCCF RECON,ioos:station:SCCF:53:1,2008-06-01T01:00:00Z,26.6493,-81.8810,2.01,27.38,1111122 
SCCF RECON,ioos:station:SCCF:53:1,2008-06-01T02:00:00Z,26.6493,-81.8810,2.01,27.9,1111122 
SCCF RECON,ioos:station:SCCF:53:1,2008-06-01T03:00:00Z,26.6493,-81.8810,2.06,28.44,1111122 
SCCF RECON,ioos:station:SCCF:53:1,2008-06-01T04:00:00Z,26.6493,-81.8810,2.1,28.64,1111122 
SCCF RECON,ioos:station:SCCF:53:1,2008-06-01T05:00:00Z,26.6493,-81.8810,2.15,28.43,1111122 
SCCF RECON,ioos:station:SCCF:53:1,2008-06-01T06:00:00Z,26.6493,-81.8810,2.2,28.36,1111122 
SCCF RECON,ioos:station:SCCF:53:1,2008-06-01T07:00:00Z,26.6493,-81.8810,2.22,28.53,1111122 
SCCF RECON,ioos:station:SCCF:53:1,2008-06-01T08:00:00Z,26.6493,-81.8810,2.21,28.46,1111122 
SCCF RECON,ioos:station:SCCF:53:1,2008-06-01T09:00:00Z,26.6493,-81.8810,2.18,28.11,1111122 
SCCF RECON,ioos:station:SCCF:53:1,2008-06-01T10:00:00Z,26.6493,-81.8810,2.14,27.98,1111122 
SCCF RECON,ioos:station:SCCF:53:1,2008-06-01T11:00:00Z,26.6493,-81.8810,2.11,28.23,1111122 
SCCF RECON,ioos:station:SCCF:53:1,2008-06-01T12:00:00Z,26.6493,-81.8810,2.09,28.43,1111122 
SCCF RECON,ioos:station:SCCF:53:1,2008-06-01T13:00:00Z,26.6493,-81.8810,2.135,28.72,1111122 
SCCF RECON,ioos:station:SCCF:53:1,2008-06-01T14:00:00Z,26.6493,-81.8810,2.2,28.48,1111122 
SCCF RECON,ioos:station:SCCF:53:1,2008-06-01T15:00:00Z,26.6493,-81.8810,2.25,28.17,1111122 
SCCF RECON,ioos:station:SCCF:53:1,2008-06-01T16:00:00Z,26.6493,-81.8810,2.313,28.48,1111122 
SCCF RECON,ioos:station:SCCF:53:1,2008-06-01T17:00:00Z,26.6493,-81.8810,2.366,28.91,1111122 
SCCF RECON,ioos:station:SCCF:53:1,2008-06-01T18:00:00Z,26.6493,-81.8810,2.4,28.67,1111122 
SCCF RECON,ioos:station:SCCF:53:1,2008-06-01T19:00:00Z,26.6493,-81.8810,2.39,28.74,1111122 
SCCF RECON,ioos:station:SCCF:53:1,2008-06-01T20:00:00Z,26.6493,-81.8810,2.33,28.57,1111122 
SCCF RECON,ioos:station:SCCF:53:1,2008-06-01T21:00:00Z,26.6493,-81.8810,2.273,28.23,1111122 
SCCF RECON,ioos:station:SCCF:53:1,2008-06-01T22:00:00Z,26.6493,-81.8810,2.215,27.9,1111122 
SCCF RECON,ioos:station:SCCF:53:1,2008-06-01T23:00:00Z,26.6493,-81.8810,2.15,27.69,1111122 
SCCF RECON,ioos:station:SCCF:53:1,2008-06-02T00:00:00Z,26.6493,-81.8810,2.098,27.48,1111122 
SCCF RECON,ioos:station:SCCF:53:1,2008-06-02T01:00:00Z,26.6493,-81.8810,2.06,26.94,1111122 
SCCF RECON,ioos:station:SCCF:53:1,2008-06-02T02:00:00Z,26.6493,-81.8810,2.018,26.72,1111122 
SCCF RECON,ioos:station:SCCF:53:1,2008-06-02T03:00:00Z,26.6493,-81.8810,2.01,26.57,1111122 
SCCF RECON,ioos:station:SCCF:53:1,2008-06-02T04:00:00Z,26.6493,-81.8810,2.038,27.09,1111122 
SCCF RECON,ioos:station:SCCF:53:1,2008-06-02T05:00:00Z,26.6493,-81.8810,2.08,27.31,1111122 
SCCF RECON,ioos:station:SCCF:53:1,2008-06-02T06:00:00Z,26.6493,-81.8810,2.13,27.8,1111122 
SCCF RECON,ioos:station:SCCF:53:1,2008-06-02T07:00:00Z,26.6493,-81.8810,2.172,28.0,1111122 
SCCF RECON,ioos:station:SCCF:53:1,2008-06-02T08:00:00Z,26.6493,-81.8810,2.2,28.09,1111122 
SCCF RECON,ioos:station:SCCF:53:1,2008-06-02T09:00:00Z,26.6493,-81.8810,2.2,28.21,1111122 
SCCF RECON,ioos:station:SCCF:53:1,2008-06-02T10:00:00Z,26.6493,-81.8810,2.19,28.08,1111122 
SCCF RECON,ioos:station:SCCF:53:1,2008-06-02T11:00:00Z,26.6493,-81.8810,2.17,27.69,1111122 
SCCF RECON,ioos:station:SCCF:53:1,2008-06-02T12:00:00Z,26.6493,-81.8810,2.139,27.58,1111122 
SCCF RECON,ioos:station:SCCF:53:1,2008-06-02T13:00:00Z,26.6493,-81.8810,2.13,27.61,1111122 
SCCF RECON,ioos:station:SCCF:53:1,2008-06-02T14:00:00Z,26.6493,-81.8810,2.191,27.73,1111122 
SCCF RECON,ioos:station:SCCF:53:1,2008-06-02T15:00:00Z,26.6493,-81.8810,2.251,27.89,1111122 
SCCF RECON,ioos:station:SCCF:53:1,2008-06-02T16:00:00Z,26.6493,-81.8810,2.31,28.09,1111122 
SCCF RECON,ioos:station:SCCF:53:1,2008-06-02T17:00:00Z,26.6493,-81.8810,2.39,28.35,1111122 
SCCF RECON,ioos:station:SCCF:53:1,2008-06-02T18:00:00Z,26.6493,-81.8810,2.431,28.49,1111122 
SCCF RECON,ioos:station:SCCF:53:1,2008-06-02T19:00:00Z,26.6493,-81.8810,2.43,28.44,1111122 
SCCF RECON,ioos:station:SCCF:53:1,2008-06-02T20:00:00Z,26.6493,-81.8810,2.377,28.44,1111122 
SCCF RECON,ioos:station:SCCF:53:1,2008-06-02T21:00:00Z,26.6493,-81.8810,2.346,28.08,1111122 
SCCF RECON,ioos:station:SCCF:53:1,2008-06-02T22:00:00Z,26.6493,-81.8810,2.285,27.46,1111122 
SCCF RECON,ioos:station:SCCF:53:1,2008-06-02T23:00:00Z,26.6493,-81.8810,2.219,27.12,1111122 
SCCF RECON,ioos:station:SCCF:53:1,2008-06-03T00:00:00Z,26.6493,-81.8810,2.174,26.74,1111122 
SCCF RECON,ioos:station:SCCF:53:1,2008-06-03T01:00:00Z,26.6493,-81.8810,2.12,26.53,1111122 
SCCF RECON,ioos:station:SCCF:53:1,2008-06-03T02:00:00Z,26.6493,-81.8810,2.07,26.24,1111122 
SCCF RECON,ioos:station:SCCF:53:1,2008-06-03T03:00:00Z,26.6493,-81.8810,2.02,26.02,1111122 
SCCF RECON,ioos:station:SCCF:53:1,2008-06-03T04:00:00Z,26.6493,-81.8810,1.99,25.85,1111122 
SCCF RECON,ioos:station:SCCF:53:1,2008-06-03T05:00:00Z,26.6493,-81.8810,2.01,25.81,1111122 
SCCF RECON,ioos:station:SCCF:53:1,2008-06-03T06:00:00Z,26.6493,-81.8810,2.04,26.36,1111122 
SCCF RECON,ioos:station:SCCF:53:1,2008-06-03T07:00:00Z,26.6493,-81.8810,2.08,26.44,1111122 
SCCF RECON,ioos:station:SCCF:53:1,2008-06-03T08:00:00Z,26.6493,-81.8810,2.11,26.86,1111122 
SCCF RECON,ioos:station:SCCF:53:1,2008-06-03T09:00:00Z,26.6493,-81.8810,2.15,27.12,1111122 
SCCF RECON,ioos:station:SCCF:53:1,2008-06-03T10:00:00Z,26.6493,-81.8810,2.17,27.24,1111122 
SCCF RECON,ioos:station:SCCF:53:1,2008-06-03T11:00:00Z,26.6493,-81.8810,2.167,27.39,1111122 
SCCF RECON,ioos:station:SCCF:53:1,2008-06-03T12:00:00Z,26.6493,-81.8810,2.144,26.89,1111122 
SCCF RECON,ioos:station:SCCF:53:1,2008-06-03T13:00:00Z,26.6493,-81.8810,2.13,26.8,1111122 
SCCF RECON,ioos:station:SCCF:53:1,2008-06-03T14:00:00Z,26.6493,-81.8810,2.16,27.16,1111122 
SCCF RECON,ioos:station:SCCF:53:1,2008-06-03T15:00:00Z,26.6493,-81.8810,2.212,27.34,1111122 
SCCF RECON,ioos:station:SCCF:53:1,2008-06-03T16:00:00Z,26.6493,-81.8810,2.26,27.46,1111122 
SCCF RECON,ioos:station:SCCF:53:1,2008-06-03T17:00:00Z,26.6493,-81.8810,2.327,27.63,1111122 
SCCF RECON,ioos:station:SCCF:53:1,2008-06-03T18:00:00Z,26.6493,-81.8810,2.38,27.88,1111122 
SCCF RECON,ioos:station:SCCF:53:1,2008-06-03T19:00:00Z,26.6493,-81.8810,2.423,28.23,1111122 
SCCF RECON,ioos:station:SCCF:53:1,2008-06-03T20:00:00Z,26.6493,-81.8810,2.435,28.24,1111122 
SCCF RECON,ioos:station:SCCF:53:1,2008-06-03T21:00:00Z,26.6493,-81.8810,2.38,28.13,1111122 
SCCF RECON,ioos:station:SCCF:53:1,2008-06-03T22:00:00Z,26.6493,-81.8810,2.31,27.7,1111122 
SCCF RECON,ioos:station:SCCF:53:1,2008-06-03T23:00:00Z,26.6493,-81.8810,2.26,27.24,1111122 
SCCF RECON,ioos:station:SCCF:53:1,2008-06-04T00:00:00Z,26.6493,-81.8810,2.2,27.02,1111122 
SCCF RECON,ioos:station:SCCF:53:1,2008-06-04T01:00:00Z,26.6493,-81.8810,2.14,26.59,1111122 
SCCF RECON,ioos:station:SCCF:53:1,2008-06-04T02:00:00Z,26.6493,-81.8810,2.09,26.38,1111122 
SCCF RECON,ioos:station:SCCF:53:1,2008-06-04T03:00:00Z,26.6493,-81.8810,2.04,26.23,1111122 
SCCF RECON,ioos:station:SCCF:53:1,2008-06-04T04:00:00Z,26.6493,-81.8810,1.99,25.99,1111122 
SCCF RECON,ioos:station:SCCF:53:1,2008-06-04T05:00:00Z,26.6493,-81.8810,1.97,25.81,1111122 
SCCF RECON,ioos:station:SCCF:53:1,2008-06-04T06:00:00Z,26.6493,-81.8810,1.97,26.53,1111122 
SCCF RECON,ioos:station:SCCF:53:1,2008-06-04T07:00:00Z,26.6493,-81.8810,2.013,27.54,1111122 
SCCF RECON,ioos:station:SCCF:53:1,2008-06-04T08:00:00Z,26.6493,-81.8810,2.05,27.57,1111122 
SCCF RECON,ioos:station:SCCF:53:1,2008-06-04T09:00:00Z,26.6493,-81.8810,2.09,27.84,1111122 
SCCF RECON,ioos:station:SCCF:53:1,2008-06-04T10:00:00Z,26.6493,-81.8810,2.12,28.61,1111122 
SCCF RECON,ioos:station:SCCF:53:1,2008-06-04T11:00:00Z,26.6493,-81.8810,2.14,28.35,1111122 
SCCF RECON,ioos:station:SCCF:53:1,2008-06-04T12:00:00Z,26.6493,-81.8810,2.14,28.26,1111122 
SCCF RECON,ioos:station:SCCF:53:1,2008-06-04T13:00:00Z,26.6493,-81.8810,2.13,27.9,1111122 
SCCF RECON,ioos:station:SCCF:53:1,2008-06-04T14:00:00Z,26.6493,-81.8810,2.13,27.77,1111122 
SCCF RECON,ioos:station:SCCF:53:1,2008-06-04T15:00:00Z,26.6493,-81.8810,2.18,28.17,1111122 
SCCF RECON,ioos:station:SCCF:53:1,2008-06-04T16:00:00Z,26.6493,-81.8810,2.231,27.99,1111122 
SCCF RECON,ioos:station:SCCF:53:1,2008-06-04T17:00:00Z,26.6493,-81.8810,2.29,27.83,1111122 
SCCF RECON,ioos:station:SCCF:53:1,2008-06-04T18:00:00Z,26.6493,-81.8810,2.36,28.03,1111122 
SCCF RECON,ioos:station:SCCF:53:1,2008-06-04T19:00:00Z,26.6493,-81.8810,2.41,28.3,1111122 
SCCF RECON,ioos:station:SCCF:53:1,2008-06-04T20:00:00Z,26.6493,-81.8810,2.45,28.64,1111122 
SCCF RECON,ioos:station:SCCF:53:1,2008-06-04T21:00:00Z,26.6493,-81.8810,2.46,28.87,1111122 
SCCF RECON,ioos:station:SCCF:53:1,2008-06-04T22:00:00Z,26.6493,-81.8810,2.397,28.76,1111122 
SCCF RECON,ioos:station:SCCF:53:1,2008-06-04T23:00:00Z,26.6493,-81.8810,2.35,27.93,1111122 
SCCF RECON,ioos:station:SCCF:53:1,2008-06-05T00:00:00Z,26.6493,-81.8810,2.3,27.21,1111122 
SCCF RECON,ioos:station:SCCF:53:1,2008-06-05T01:00:00Z,26.6493,-81.8810,2.24,26.92,1111122 
SCCF RECON,ioos:station:SCCF:53:1,2008-06-05T02:00:00Z,26.6493,-81.8810,2.18,26.62,1111122 
SCCF RECON,ioos:station:SCCF:53:1,2008-06-05T03:00:00Z,26.6493,-81.8810,2.13,26.32,1111122 
SCCF RECON,ioos:station:SCCF:53:1,2008-06-05T04:00:00Z,26.6493,-81.8810,2.07,25.95,1111122 
SCCF RECON,ioos:station:SCCF:53:1,2008-06-05T05:00:00Z,26.6493,-81.8810,2.021,25.73,1111122 
SCCF RECON,ioos:station:SCCF:53:1,2008-06-05T06:00:00Z,26.6493,-81.8810,2.0,25.57,1111122 
SCCF RECON,ioos:station:SCCF:53:1,2008-06-05T07:00:00Z,26.6493,-81.8810,2.02,26.04,1111122 
SCCF RECON,ioos:station:SCCF:53:1,2008-06-05T08:00:00Z,26.6493,-81.8810,2.06,26.21,1111122 
SCCF RECON,ioos:station:SCCF:53:1,2008-06-05T09:00:00Z,26.6493,-81.8810,2.1,26.8,1111122 
SCCF RECON,ioos:station:SCCF:53:1,2008-06-05T10:00:00Z,26.6493,-81.8810,2.13,27.06,1111122 
SCCF RECON,ioos:station:SCCF:53:1,2008-06-05T11:00:00Z,26.6493,-81.8810,2.15,27.13,1111122 
SCCF RECON,ioos:station:SCCF:53:1,2008-06-05T12:00:00Z,26.6493,-81.8810,2.137,26.95,1111122 
SCCF RECON,ioos:station:SCCF:53:1,2008-06-05T13:00:00Z,26.6493,-81.8810,2.12,27.04,1111122 
SCCF RECON,ioos:station:SCCF:53:1,2008-06-05T14:00:00Z,26.6493,-81.8810,2.11,26.55,1111122 
SCCF RECON,ioos:station:SCCF:53:1,2008-06-05T15:00:00Z,26.6493,-81.8810,2.12,27.05,1111122 
SCCF RECON,ioos:station:SCCF:53:1,2008-06-05T16:00:00Z,26.6493,-81.8810,2.178,27.09,1111122 
SCCF RECON,ioos:station:SCCF:53:1,2008-06-05T17:00:00Z,26.6493,-81.8810,2.229,26.94,1111122 
SCCF RECON,ioos:station:SCCF:53:1,2008-06-05T18:00:00Z,26.6493,-81.8810,2.289,27.52,1111122 
SCCF RECON,ioos:station:SCCF:53:1,2008-06-05T19:00:00Z,26.6493,-81.8810,2.35,28.04,1111122 
SCCF RECON,ioos:station:SCCF:53:1,2008-06-05T20:00:00Z,26.6493,-81.8810,2.41,28.28,1111122 
SCCF RECON,ioos:station:SCCF:53:1,2008-06-05T21:00:00Z,26.6493,-81.8810,2.49,28.57,1111122 
SCCF RECON,ioos:station:SCCF:53:1,2008-06-05T22:00:00Z,26.6493,-81.8810,2.454,28.61,1111122 
SCCF RECON,ioos:station:SCCF:53:1,2008-06-05T23:00:00Z,26.6493,-81.8810,2.39,28.43,1111122 
SCCF RECON,ioos:station:SCCF:53:1,2008-06-06T00:00:00Z,26.6493,-81.8810,2.34,28.03,1111122 
SCCF RECON,ioos:station:SCCF:53:1,2008-06-06T01:00:00Z,26.6493,-81.8810,2.29,27.44,1111122 
SCCF RECON,ioos:station:SCCF:53:1,2008-06-06T02:00:00Z,26.6493,-81.8810,2.229,27.73,1111122 
SCCF RECON,ioos:station:SCCF:53:1,2008-06-06T03:00:00Z,26.6493,-81.8810,2.178,27.26,1111122 
SCCF RECON,ioos:station:SCCF:53:1,2008-06-06T04:00:00Z,26.6493,-81.8810,2.12,26.94,1111122 
SCCF RECON,ioos:station:SCCF:53:1,2008-06-06T05:00:00Z,26.6493,-81.8810,2.06,26.92,1111122 
SCCF RECON,ioos:station:SCCF:53:1,2008-06-06T06:00:00Z,26.6493,-81.8810,2.01,26.64,1111122 
SCCF RECON,ioos:station:SCCF:53:1,2008-06-06T07:00:00Z,26.6493,-81.8810,1.99,26.54,1111122 
SCCF RECON,ioos:station:SCCF:53:1,2008-06-06T08:00:00Z,26.6493,-81.8810,1.996,26.75,1111122 
SCCF RECON,ioos:station:SCCF:53:1,2008-06-06T09:00:00Z,26.6493,-81.8810,2.03,27.44,1111122 
SCCF RECON,ioos:station:SCCF:53:1,2008-06-06T10:00:00Z,26.6493,-81.8810,2.07,27.77,1111122 
SCCF RECON,ioos:station:SCCF:53:1,2008-06-06T11:00:00Z,26.6493,-81.8810,2.1,27.79,1111122 
SCCF RECON,ioos:station:SCCF:53:1,2008-06-06T12:00:00Z,26.6493,-81.8810,2.112,27.69,1111122 
SCCF RECON,ioos:station:SCCF:53:1,2008-06-06T13:00:00Z,26.6493,-81.8810,2.12,27.79,1111122 
SCCF RECON,ioos:station:SCCF:53:1,2008-06-06T14:00:00Z,26.6493,-81.8810,2.115,27.25,1111122 
SCCF RECON,ioos:station:SCCF:53:1,2008-06-06T15:00:00Z,26.6493,-81.8810,2.12,27.34,1111122 
SCCF RECON,ioos:station:SCCF:53:1,2008-06-06T16:00:00Z,26.6493,-81.8810,2.146,27.82,1111122 
SCCF RECON,ioos:station:SCCF:53:1,2008-06-06T17:00:00Z,26.6493,-81.8810,2.189,27.56,1111122 
SCCF RECON,ioos:station:SCCF:53:1,2008-06-06T18:00:00Z,26.6493,-81.8810,2.233,27.72,1111122 
SCCF RECON,ioos:station:SCCF:53:1,2008-06-06T19:00:00Z,26.6493,-81.8810,2.29,27.85,1111122 
SCCF RECON,ioos:station:SCCF:53:1,2008-06-06T20:00:00Z,26.6493,-81.8810,2.35,28.1,1111122 
SCCF RECON,ioos:station:SCCF:53:1,2008-06-06T21:00:00Z,26.6493,-81.8810,2.381,28.52,1111122 
SCCF RECON,ioos:station:SCCF:53:1,2008-06-06T22:00:00Z,26.6493,-81.8810,2.45,28.73,1111122 
SCCF RECON,ioos:station:SCCF:53:1,2008-06-06T23:00:00Z,26.6493,-81.8810,2.43,28.73,1111122 
SCCF RECON,ioos:station:SCCF:53:1,2008-06-07T00:00:00Z,26.6493,-81.8810,2.38,28.13,1111122 
SCCF RECON,ioos:station:SCCF:53:1,2008-06-07T01:00:00Z,26.6493,-81.8810,2.33,27.49,1111122 
SCCF RECON,ioos:station:SCCF:53:1,2008-06-07T02:00:00Z,26.6493,-81.8810,2.271,27.25,1111122 
SCCF RECON,ioos:station:SCCF:53:1,2008-06-07T03:00:00Z,26.6493,-81.8810,2.22,27.05,1111122 
SCCF RECON,ioos:station:SCCF:53:1,2008-06-07T04:00:00Z,26.6493,-81.8810,2.17,26.8,1111122 
SCCF RECON,ioos:station:SCCF:53:1,2008-06-07T05:00:00Z,26.6493,-81.8810,2.11,26.57,1111122 
SCCF RECON,ioos:station:SCCF:53:1,2008-06-07T06:00:00Z,26.6493,-81.8810,2.05,26.38,1111122 
SCCF RECON,ioos:station:SCCF:53:1,2008-06-07T07:00:00Z,26.6493,-81.8810,2.01,26.26,1111122 
SCCF RECON,ioos:station:SCCF:53:1,2008-06-07T08:00:00Z,26.6493,-81.8810,2.01,26.19,1111122 
SCCF RECON,ioos:station:SCCF:53:1,2008-06-07T09:00:00Z,26.6493,-81.8810,2.02,26.78,1111122 
SCCF RECON,ioos:station:SCCF:53:1,2008-06-07T10:00:00Z,26.6493,-81.8810,2.05,27.07,1111122 
SCCF RECON,ioos:station:SCCF:53:1,2008-06-07T11:00:00Z,26.6493,-81.8810,2.08,27.24,1111122 
SCCF RECON,ioos:station:SCCF:53:1,2008-06-07T12:00:00Z,26.6493,-81.8810,2.1,27.4,1111122 
SCCF RECON,ioos:station:SCCF:53:1,2008-06-07T13:00:00Z,26.6493,-81.8810,2.12,27.56,1111122 
SCCF RECON,ioos:station:SCCF:53:1,2008-06-07T14:00:00Z,26.6493,-81.8810,2.12,27.46,1111122 
SCCF RECON,ioos:station:SCCF:53:1,2008-06-07T15:00:00Z,26.6493,-81.8810,2.099,27.53,1111122 
SCCF RECON,ioos:station:SCCF:53:1,2008-06-07T16:00:00Z,26.6493,-81.8810,2.09,27.58,1111122 
SCCF RECON,ioos:station:SCCF:53:1,2008-06-07T17:00:00Z,26.6493,-81.8810,2.107,27.99,1111122 
SCCF RECON,ioos:station:SCCF:53:1,2008-06-07T18:00:00Z,26.6493,-81.8810,2.131,27.85,1111122 
SCCF RECON,ioos:station:SCCF:53:1,2008-06-07T19:00:00Z,26.6493,-81.8810,2.169,27.82,1111122 
SCCF RECON,ioos:station:SCCF:53:1,2008-06-07T20:00:00Z,26.6493,-81.8810,2.219,28.09,1111122 
SCCF RECON,ioos:station:SCCF:53:1,2008-06-07T21:00:00Z,26.6493,-81.8810,2.255,28.42,1111122 
SCCF RECON,ioos:station:SCCF:53:1,2008-06-07T22:00:00Z,26.6493,-81.8810,2.292,28.81,1111122 
SCCF RECON,ioos:station:SCCF:53:1,2008-06-07T23:00:00Z,26.6493,-81.8810,2.325,28.59,1111122 
SCCF RECON,ioos:station:SCCF:53:1,2008-06-08T00:00:00Z,26.6493,-81.8810,2.318,28.54,1111122 
SCCF RECON,ioos:station:SCCF:53:1,2008-06-08T01:00:00Z,26.6493,-81.8810,2.271,28.0,1111122 
SCCF RECON,ioos:station:SCCF:53:1,2008-06-08T02:00:00Z,26.6493,-81.8810,2.23,27.86,1111122 
SCCF RECON,ioos:station:SCCF:53:1,2008-06-08T03:00:00Z,26.6493,-81.8810,2.19,27.94,1111122 
SCCF RECON,ioos:station:SCCF:53:1,2008-06-08T04:00:00Z,26.6493,-81.8810,2.138,27.11,1111122 
SCCF RECON,ioos:station:SCCF:53:1,2008-06-08T05:00:00Z,26.6493,-81.8810,2.08,26.98,1111122 
SCCF RECON,ioos:station:SCCF:53:1,2008-06-08T06:00:00Z,26.6493,-81.8810,2.027,26.83,1111122 
SCCF RECON,ioos:station:SCCF:53:1,2008-06-08T07:00:00Z,26.6493,-81.8810,1.97,26.86,1111122 
SCCF RECON,ioos:station:SCCF:53:1,2008-06-08T08:00:00Z,26.6493,-81.8810,1.94,26.93,1111122 
SCCF RECON,ioos:station:SCCF:53:1,2008-06-08T09:00:00Z,26.6493,-81.8810,1.95,27.16,1111122 
SCCF RECON,ioos:station:SCCF:53:1,2008-06-08T10:00:00Z,26.6493,-81.8810,1.98,27.59,1111122 
SCCF RECON,ioos:station:SCCF:53:1,2008-06-08T11:00:00Z,26.6493,-81.8810,2.02,27.6,1111122 
SCCF RECON,ioos:station:SCCF:53:1,2008-06-08T12:00:00Z,26.6493,-81.8810,2.07,27.78,1111122 
SCCF RECON,ioos:station:SCCF:53:1,2008-06-08T13:00:00Z,26.6493,-81.8810,2.11,27.35,1111122 
SCCF RECON,ioos:station:SCCF:53:1,2008-06-08T14:00:00Z,26.6493,-81.8810,2.13,27.98,1111122 
SCCF RECON,ioos:station:SCCF:53:1,2008-06-08T15:00:00Z,26.6493,-81.8810,2.127,27.96,1111122 
SCCF RECON,ioos:station:SCCF:53:1,2008-06-08T16:00:00Z,26.6493,-81.8810,2.1,27.9,1111122 
SCCF RECON,ioos:station:SCCF:53:1,2008-06-08T17:00:00Z,26.6493,-81.8810,2.07,27.81,1111122 
SCCF RECON,ioos:station:SCCF:53:1,2008-06-08T18:00:00Z,26.6493,-81.8810,2.051,27.86,1111122 
SCCF RECON,ioos:station:SCCF:53:1,2008-06-08T19:00:00Z,26.6493,-81.8810,2.071,27.9,1111122 
SCCF RECON,ioos:station:SCCF:53:1,2008-06-08T20:00:00Z,26.6493,-81.8810,2.12,27.83,1111122 
SCCF RECON,ioos:station:SCCF:53:1,2008-06-08T21:00:00Z,26.6493,-81.8810,2.192,27.11,1111122 
SCCF RECON,ioos:station:SCCF:53:1,2008-06-08T22:00:00Z,26.6493,-81.8810,2.23,27.66,1111122 
SCCF RECON,ioos:station:SCCF:53:1,2008-06-08T23:00:00Z,26.6493,-81.8810,2.27,27.98,1111122 
SCCF RECON,ioos:station:SCCF:53:1,2008-06-09T00:00:00Z,26.6493,-81.8810,2.32,28.14,1111122 
SCCF RECON,ioos:station:SCCF:53:1,2008-06-09T01:00:00Z,26.6493,-81.8810,2.34,28.1,1111122 
SCCF RECON,ioos:station:SCCF:53:1,2008-06-09T02:00:00Z,26.6493,-81.8810,2.28,27.46,1111122 
SCCF RECON,ioos:station:SCCF:53:1,2008-06-09T03:00:00Z,26.6493,-81.8810,2.22,27.15,1111122 
SCCF RECON,ioos:station:SCCF:53:1,2008-06-09T04:00:00Z,26.6493,-81.8810,2.18,26.86,1111122 
SCCF RECON,ioos:station:SCCF:53:1,2008-06-09T05:00:00Z,26.6493,-81.8810,2.12,26.48,1111122 
SCCF RECON,ioos:station:SCCF:53:1,2008-06-09T06:00:00Z,26.6493,-81.8810,2.06,26.92,1111122 
SCCF RECON,ioos:station:SCCF:53:1,2008-06-09T07:00:00Z,26.6493,-81.8810,2.01,26.32,1111122 
SCCF RECON,ioos:station:SCCF:53:1,2008-06-09T08:00:00Z,26.6493,-81.8810,1.97,27.34,1111122 
SCCF RECON,ioos:station:SCCF:53:1,2008-06-09T09:00:00Z,26.6493,-81.8810,1.99,28.05,1111122 
SCCF RECON,ioos:station:SCCF:53:1,2008-06-09T10:00:00Z,26.6493,-81.8810,2.031,28.12,1111122 
SCCF RECON,ioos:station:SCCF:53:1,2008-06-09T11:00:00Z,26.6493,-81.8810,2.07,27.7,1111122 
SCCF RECON,ioos:station:SCCF:53:1,2008-06-09T12:00:00Z,26.6493,-81.8810,2.12,27.85,1111122 
SCCF RECON,ioos:station:SCCF:53:1,2008-06-09T13:00:00Z,26.6493,-81.8810,2.16,27.99,1111122 
SCCF RECON,ioos:station:SCCF:53:1,2008-06-09T14:00:00Z,26.6493,-81.8810,2.19,28.02,1111122 
SCCF RECON,ioos:station:SCCF:53:1,2008-06-09T15:00:00Z,26.6493,-81.8810,2.21,28.09,1111122 
SCCF RECON,ioos:station:SCCF:53:1,2008-06-09T16:00:00Z,26.6493,-81.8810,2.191,28.18,1111122 
SCCF RECON,ioos:station:SCCF:53:1,2008-06-09T17:00:00Z,26.6493,-81.8810,2.15,27.97,1111122 
SCCF RECON,ioos:station:SCCF:53:1,2008-06-09T18:00:00Z,26.6493,-81.8810,2.11,27.71,1111122 
SCCF RECON,ioos:station:SCCF:53:1,2008-06-09T19:00:00Z,26.6493,-81.8810,2.08,27.81,1111122 
SCCF RECON,ioos:station:SCCF:53:1,2008-06-09T20:00:00Z,26.6493,-81.8810,2.122,28.08,1111122 
SCCF RECON,ioos:station:SCCF:53:1,2008-06-09T21:00:00Z,26.6493,-81.8810,2.106,26.79,1111122 
SCCF RECON,ioos:station:SCCF:53:1,2008-06-09T22:00:00Z,26.6493,-81.8810,2.18,26.98,1111122 
SCCF RECON,ioos:station:SCCF:53:1,2008-06-09T23:00:00Z,26.6493,-81.8810,2.21,27.14,1111122 
SCCF RECON,ioos:station:SCCF:53:1,2008-06-10T00:00:00Z,26.6493,-81.8810,2.23,27.19,1111122 
SCCF RECON,ioos:station:SCCF:53:1,2008-06-10T01:00:00Z,26.6493,-81.8810,2.248,27.28,1111122 
SCCF RECON,ioos:station:SCCF:53:1,2008-06-10T02:00:00Z,26.6493,-81.8810,2.28,27.47,1111122 
SCCF RECON,ioos:station:SCCF:53:1,2008-06-10T03:00:00Z,26.6493,-81.8810,2.24,27.24,1111122 
SCCF RECON,ioos:station:SCCF:53:1,2008-06-10T04:00:00Z,26.6493,-81.8810,2.21,26.9,1111122 
SCCF RECON,ioos:station:SCCF:53:1,2008-06-10T05:00:00Z,26.6493,-81.8810,2.16,26.97,1111122 
SCCF RECON,ioos:station:SCCF:53:1,2008-06-10T06:00:00Z,26.6493,-81.8810,2.11,27.09,1111122 
SCCF RECON,ioos:station:SCCF:53:1,2008-06-10T07:00:00Z,26.6493,-81.8810,2.06,27.1,1111122 
SCCF RECON,ioos:station:SCCF:53:1,2008-06-10T08:00:00Z,26.6493,-81.8810,2.03,27.16,1111122 
SCCF RECON,ioos:station:SCCF:53:1,2008-06-10T09:00:00Z,26.6493,-81.8810,2.01,27.16,1111122 
SCCF RECON,ioos:station:SCCF:53:1,2008-06-10T10:00:00Z,26.6493,-81.8810,2.042,27.19,1111122 
SCCF RECON,ioos:station:SCCF:53:1,2008-06-10T11:00:00Z,26.6493,-81.8810,2.1,27.29,1111122 
SCCF RECON,ioos:station:SCCF:53:1,2008-06-10T12:00:00Z,26.6493,-81.8810,2.14,27.83,1111122 
SCCF RECON,ioos:station:SCCF:53:1,2008-06-10T13:00:00Z,26.6493,-81.8810,2.19,27.81,1111122 
SCCF RECON,ioos:station:SCCF:53:1,2008-06-10T14:00:00Z,26.6493,-81.8810,2.24,27.85,1111122 
SCCF RECON,ioos:station:SCCF:53:1,2008-06-10T15:00:00Z,26.6493,-81.8810,2.261,28.28,1111122 
SCCF RECON,ioos:station:SCCF:53:1,2008-06-10T16:00:00Z,26.6493,-81.8810,2.26,28.0,1111122 
SCCF RECON,ioos:station:SCCF:53:1,2008-06-10T17:00:00Z,26.6493,-81.8810,2.21,27.74,1111122 
SCCF RECON,ioos:station:SCCF:53:1,2008-06-10T18:00:00Z,26.6493,-81.8810,2.16,27.29,1111122 
SCCF RECON,ioos:station:SCCF:53:1,2008-06-10T19:00:00Z,26.6493,-81.8810,2.11,27.51,1111122 
SCCF RECON,ioos:station:SCCF:53:1,2008-06-10T20:00:00Z,26.6493,-81.8810,2.07,27.25,1111122 
SCCF RECON,ioos:station:SCCF:53:1,2008-06-10T21:00:00Z,26.6493,-81.8810,2.047,27.42,1111122 
SCCF RECON,ioos:station:SCCF:53:1,2008-06-10T22:00:00Z,26.6493,-81.8810,2.066,27.38,1111122 
SCCF RECON,ioos:station:SCCF:53:1,2008-06-10T23:00:00Z,26.6493,-81.8810,2.109,27.9,1111122 
SCCF RECON,ioos:station:SCCF:53:1,2008-06-11T00:00:00Z,26.6493,-81.8810,2.14,28.45,1111122 
SCCF RECON,ioos:station:SCCF:53:1,2008-06-11T01:00:00Z,26.6493,-81.8810,2.19,27.2,1111122 
SCCF RECON,ioos:station:SCCF:53:1,2008-06-11T02:00:00Z,26.6493,-81.8810,2.22,26.29,1111122 
SCCF RECON,ioos:station:SCCF:53:1,2008-06-11T03:00:00Z,26.6493,-81.8810,2.23,26.63,1111122 
SCCF RECON,ioos:station:SCCF:53:1,2008-06-11T04:00:00Z,26.6493,-81.8810,2.18,27.42,1111122 
SCCF RECON,ioos:station:SCCF:53:1,2008-06-11T05:00:00Z,26.6493,-81.8810,2.15,27.19,1111122 
SCCF RECON,ioos:station:SCCF:53:1,2008-06-11T06:00:00Z,26.6493,-81.8810,2.11,26.49,1111122 
SCCF RECON,ioos:station:SCCF:53:1,2008-06-11T07:00:00Z,26.6493,-81.8810,2.06,25.83,1111122 
SCCF RECON,ioos:station:SCCF:53:1,2008-06-11T08:00:00Z,26.6493,-81.8810,2.02,26.98,1111122 
SCCF RECON,ioos:station:SCCF:53:1,2008-06-11T09:00:00Z,26.6493,-81.8810,1.99,27.05,1111122 
SCCF RECON,ioos:station:SCCF:53:1,2008-06-11T10:00:00Z,26.6493,-81.8810,2.0,27.25,1111122 
SCCF RECON,ioos:station:SCCF:53:1,2008-06-11T11:00:00Z,26.6493,-81.8810,2.054,27.41,1111122 
SCCF RECON,ioos:station:SCCF:53:1,2008-06-11T12:00:00Z,26.6493,-81.8810,2.1,27.34,1111122 
SCCF RECON,ioos:station:SCCF:53:1,2008-06-11T13:00:00Z,26.6493,-81.8810,2.151,27.55,1111122 
SCCF RECON,ioos:station:SCCF:53:1,2008-06-11T14:00:00Z,26.6493,-81.8810,2.203,27.4,1111122 
SCCF RECON,ioos:station:SCCF:53:1,2008-06-11T15:00:00Z,26.6493,-81.8810,2.24,28.11,1111122 
SCCF RECON,ioos:station:SCCF:53:1,2008-06-11T16:00:00Z,26.6493,-81.8810,2.26,27.94,1111122 
SCCF RECON,ioos:station:SCCF:53:1,2008-06-11T17:00:00Z,26.6493,-81.8810,2.233,28.41,1111122 
SCCF RECON,ioos:station:SCCF:53:1,2008-06-11T18:00:00Z,26.6493,-81.8810,2.18,27.2,1111122 